Regional Weather Roundup
Issued by NWS Sioux Falls, SD

Home | Current Version | Previous Version | Text Only | Print | Product List | Glossary On
Versions: 1 2 3 4 5 6 7 8 9 10 11 12 13 14 15 16 17 18 19 20 21 22 23 24 25 26 27 28 29 30 31 32 33 34 35 36 37 38 39 40 41 42 43 44 45 46 47 48 49 50
000
ASUS43 KFSD 180310
RWRFSD

WEATHER ROUNDUP FOR SE SOUTH DAKOTA/SW MINNESOTA/NW IOWA
NATIONAL WEATHER SERVICE SIOUX FALLS SD
1000 PM CDT THU AUG 17 2017

NOTE: "FAIR" INDICATES FEW OR NO CLOUDS BELOW 12,000 FEET WITH NO
SIGNIFICANT WEATHER AND OR OBSTRUCTIONS TO VISIBILITY.


SDZ038>040-050-052>070-180400-
SOUTHEAST SOUTH DAKOTA

CITY           SKY/WX    TMP DP  RH WIND       PRES   REMARKS
BROOKINGS      CLOUDY    66  59  78 SE3       29.91R
CHAMBERLAIN    CLOUDY    72  65  78 NE8       29.86F
HURON          LGT RAIN  72  59  63 NW28G43   29.94R
MADISON        FAIR      64  64 100 E5        29.91S
MITCHELL       CLOUDY    70  61  73 SE9       29.86R
SIOUX FALLS    CLOUDY    65  62  90 CALM      29.90R
WINNER         FAIR      67  58  72 S13       29.90R
YANKTON        CLEAR     70  62  76 SE3       29.89R
$$

MNZ071-072-080-081-089-090-097-098-180400-
SOUTHWEST MINNESOTA

CITY           SKY/WX    TMP DP  RH WIND       PRES   REMARKS
FAIRMONT       CLEAR     64  61  90 NW3       29.89R
JACKSON        CLEAR     61  57  88 CALM      29.91S
LUVERNE        CLEAR     63  59  88 CALM      29.91S
MARSHALL       CLEAR     61  59  93 W5        29.90R
MONTEVIDEO     CLEAR     64  61  88 NW3       29.89R
PIPESTONE      PTCLDY    66  61  82 CALM      29.92R
REDWOOD FALLS  CLEAR     65  61  87 W6        29.87R
TRACY          CLEAR     64  61  89 CALM      29.90R
WINDOM         CLEAR     61  57  88 CALM      29.90S
WORTHINGTON    CLEAR     63  61  93 W3        29.92R
$$

IAZ001>003-012>014-020>022-031-032-NEZ013-014-SDZ071-180400-
NORTHWEST IOWA

CITY           SKY/WX    TMP DP  RH WIND       PRES   REMARKS
CHEROKEE       CLEAR     65  62  91 CALM      29.91R
DENISON        CLEAR     63  61  94 CALM      29.93R
ESTHERVILLE    CLEAR     60  60 100 W6        29.89R
LE MARS        CLEAR     64  64 100 S3        29.90S
ORANGE CITY    CLEAR     70  66  88 CALM      29.91S
SHELDON        PTCLDY    61  59  94 CALM      29.90R
SIOUX CITY     CLEAR     67  63  87 CALM      29.90R
SPENCER        CLEAR     64  62  93 NE6       29.91R
STORM LAKE     CLEAR     66  61  82 W7        29.92R
$$

ABBREVIATIONS USED IN REMARKS
   TC - TEMPERATURE IN CELSIUS
  WCI - WIND CHILL INDEX
   HX - HEAT INDEX
  VSB - VISIBILITY




USA.gov is the U.S. government's official web portal to all federal, state and local government web resources and services.